CW9928 Weather Reports


Display with metric or nautical units.
time (UTC)temp
F
wind
direction
speed
MPH
gust
MPH
rain 1hr
in
rain 24hr
in
rain mn
in
humidity
%
barometer
mb
20181215161225 39 61 0.0 7.0 0.00 0.02 0.00 88 1021.9
20181215160224 39 51 4.0 6.0 0.00 0.02 0.00 88 1022.0
20181215155224 38 60 2.0 6.0 0.00 0.03 0.00 89 1022.1
20181215154225 38 54 4.0 6.0 0.00 0.04 0.00 89 1022.2
20181215153224 38 71 0.0 7.0 0.00 0.04 0.00 90 1022.5
20181215152225 38 60 3.0 6.0 0.00 0.05 0.00 90 1022.7
20181215151224 38 36 2.0 7.0 0.00 0.05 0.00 91 1022.7
20181215150224 38 51 0.0 6.0 0.00 0.05 0.00 91 1022.8
20181215145224 38 33 1.0 5.0 0.00 0.05 0.00 91 1022.9
20181215144224 37 32 1.0 6.0 0.00 0.05 0.00 91 1022.6
20181215143224 37 59 2.0 5.0 0.00 0.05 0.00 91 1022.6
20181215142226 37 57 2.0 5.0 0.00 0.05 0.00 91 1022.7
20181215141224 37 57 3.0 4.0 0.00 0.05 0.00 91 1022.7
20181215140224 37 57 4.0 4.0 0.00 0.05 0.00 91 1022.8
20181215135225 37 57 0.0 5.0 0.00 0.05 0.00 91 1022.8
20181215134224 37 59 2.0 4.0 0.00 0.05 0.00 91 1022.7
20181215133224 37 59 2.0 5.0 0.00 0.05 0.00 91 1022.9
20181215132224 37 71 2.0 4.0 0.00 0.05 0.00 91 1022.7
20181215131224 37 57 1.0 2.0 0.00 0.05 0.00 91 1022.5
20181215130224 36 57 0.0 2.0 0.00 0.05 0.00 91 1022.5
20181215125224 36 57 2.0 6.0 0.00 0.05 0.00 91 1022.4
20181215124225 36 53 3.0 5.0 0.00 0.05 0.00 91 1022.1
20181215123225 36 51 0.0 4.0 0.00 0.05 0.00 91 1022.2
20181215122224 37 52 0.0 5.0 0.00 0.05 0.00 91 1022.6
20181215121224 37 52 0.0 6.0 0.00 0.05 0.00 91 1022.7
20181215120224 37 52 0.0 5.0 0.00 0.05 0.00 91 1022.7
20181215115225 37 53 4.0 5.0 0.00 0.05 0.00 91 1022.5
20181215114224 37 26 3.0 4.0 0.00 0.05 0.00 91 1022.4
20181215113224 37 26 3.0 5.0 0.00 0.05 0.00 91 1022.3
20181215112226 37 55 4.0 6.0 0.00 0.05 0.00 91 1022.0
20181215111225 37 201 2.0 3.0 0.00 0.05 0.00 91 1022.1
20181215110224 37 203 0.0 0.0 0.00 0.05 0.00 91 1022.2
20181215105224 37 203 0.0 0.0 0.00 0.05 0.00 91 1022.2
20181215104224 37 203 0.0 1.0 0.00 0.05 0.00 91 1022.1
20181215103225 37 203 1.0 2.0 0.00 0.05 0.00 91 1021.9
20181215102224 37 202 0.0 2.0 0.00 0.05 0.00 91 1022.1
20181215101225 37 202 0.0 2.0 0.00 0.05 0.00 91 1022.1
20181215100224 37 202 0.0 1.0 0.00 0.05 0.00 90 1021.9
20181215095224 37 202 0.0 1.0 0.00 0.05 0.00 90 1021.8
20181215094224 37 202 0.0 0.0 0.00 0.05 0.00 90 1021.7
20181215093225 37 202 0.0 1.0 0.00 0.05 0.00 90 1021.5
20181215092224 36 202 0.0 0.0 0.00 0.05 0.00 89 1021.4
20181215091224 36 202 0.0 0.0 0.00 0.05 0.00 89 1021.4
20181215090224 36 202 0.0 0.0 0.00 0.05 0.00 89 1021.1
20181215085224 36 202 0.0 0.0 0.00 0.05 0.00 88 1020.9
20181215084224 36 202 0.0 0.0 0.00 0.05 0.00 88 1020.5
20181215083224 37 202 0.0 0.0 0.00 0.05 0.00 87 1020.0
20181215082224 37 202 0.0 0.0 0.00 0.05 0.00 87 1020.0
20181215081224 38 202 0.0 0.0 0.00 0.05 0.00 87 1020.3
20181215080224 38 202 0.0 0.0 0.00 0.05 0.00 86 1020.1
20181215075224 38 202 0.0 0.0 0.00 0.05 0.00 86 1020.2
20181215074224 39 202 0.0 0.0 0.00 0.05 0.00 85 1020.2
20181215073224 39 202 0.0 2.0 0.00 0.05 0.00 85 1020.3
20181215072224 40 202 0.0 0.0 0.00 0.05 0.00 84 1020.0
20181215071225 41 202 0.0 0.0 0.00 0.05 0.00 84 1019.9
20181215070224 41 202 0.0 2.0 0.00 0.05 0.00 84 1019.9
20181215065224 41 202 0.0 3.0 0.00 0.05 0.00 85 1019.8
20181215064224 41 200 0.0 4.0 0.00 0.05 0.00 85 1019.2
20181215063224 41 199 2.0 4.0 0.00 0.05 0.00 85 1019.1
20181215062226 41 199 0.0 4.0 0.00 0.05 0.00 85 1018.9
20181215061225 41 198 0.0 3.0 0.00 0.05 0.00 85 1019.0
20181215060224 41 198 2.0 2.0 0.00 0.05 0.00 84 1019.1
20181215055224 41 198 0.0 2.0 0.00 0.05 0.00 84 1019.2
20181215054224 41 198 0.0 1.0 0.00 0.05 0.00 84 1019.1
20181215053224 41 198 0.0 0.0 0.00 0.05 0.00 84 1019.2
20181215052224 42 198 0.0 0.0 0.00 0.05 0.00 83 1019.3
20181215051224 42 198 0.0 0.0 0.00 0.05 0.00 84 1019.4
20181215050254 42 198 0.0 0.0 0.00 0.05 0.00 84 1019.5
20181215045250 42 198 0.0 0.0 0.00 0.05 0.05 84 1019.7
20181215044220 42 198 0.0 0.0 0.00 0.05 0.05 83 1019.8
20181215043251 42 198 0.0 1.0 0.00 0.05 0.05 83 1019.8
20181215042250 42 198 0.0 0.0 0.00 0.05 0.05 83 1019.9
20181215041250 42 198 0.0 0.0 0.00 0.05 0.05 83 1019.9
20181215040250 42 198 0.0 1.0 0.00 0.05 0.05 83 1019.8
20181215035220 42 198 0.0 0.0 0.00 0.05 0.05 83 1019.9
20181215034250 42 198 0.0 0.0 0.00 0.05 0.05 83 1020.1
20181215033250 42 198 0.0 0.0 0.00 0.05 0.05 83 1020.2
20181215032250 42 198 0.0 1.0 0.00 0.05 0.05 83 1020.2
20181215031250 42 198 0.0 0.0 0.00 0.05 0.05 82 1020.2
20181215030250 42 198 0.0 0.0 0.00 0.05 0.05 82 1020.3
20181215025250 42 198 0.0 2.0 0.00 0.05 0.05 82 1020.2
20181215024250 42 198 0.0 0.0 0.00 0.05 0.05 82 1020.0
20181215023250 43 198 0.0 0.0 0.00 0.05 0.05 81 1020.2
20181215022250 43 198 0.0 2.0 0.00 0.05 0.05 81 1020.2
20181215021220 42 198 0.0 2.0 0.00 0.05 0.05 82 1020.1
20181215020250 42 198 0.0 2.0 0.00 0.05 0.05 82 1020.1
20181215015250 42 198 0.0 2.0 0.00 0.05 0.05 83 1020.0
20181215014250 42 198 0.0 1.0 0.00 0.05 0.05 84 1020.0
20181215013220 41 198 0.0 1.0 0.00 0.05 0.05 84 1020.1
20181215012220 41 198 0.0 0.0 0.00 0.05 0.05 84 1020.2
20181215011250 41 198 0.0 0.0 0.00 0.05 0.05 83 1020.2
20181215010220 41 198 0.0 0.0 0.00 0.05 0.05 83 1020.4
20181215005250 41 198 0.0 0.0 0.00 0.05 0.05 82 1020.5
20181215004250 41 198 0.0 2.0 0.00 0.05 0.05 82 1020.7
20181215003220 41 198 0.0 0.0 0.00 0.05 0.05 81 1020.8
20181215002250 41 198 0.0 1.0 0.00 0.05 0.05 81 1020.6
20181215001250 41 198 0.0 0.0 0.00 0.05 0.05 81 1020.6
20181215000250 41 198 0.0 2.0 0.00 0.05 0.05 81 1020.5
20181214235250 41 198 0.0 1.0 0.00 0.05 0.05 80 1020.6
20181214234220 41 198 0.0 1.0 0.00 0.05 0.05 81 1020.5
20181214233222 41 198 0.0 0.0 0.00 0.05 0.05 81 1020.5
20181214232250 41 198 0.0 1.0 0.00 0.05 0.05 81 1020.3
20181214231220 41 198 0.0 0.0 0.00 0.05 0.05 80 1020.1
20181214230250 41 198 0.0 0.0 0.00 0.05 0.05 80 1020.0
20181214225250 41 198 0.0 0.0 0.00 0.05 0.05 79 1020.0
20181214224250 42 198 0.0 0.0 0.00 0.05 0.05 79 1020.0
20181214223250 42 198 0.0 0.0 0.00 0.05 0.05 78 1019.8
20181214222220 43 198 0.0 1.0 0.00 0.05 0.05 76 1019.9
20181214221250 43 198 0.0 2.0 0.00 0.05 0.05 76 1020.0
20181214220250 44 198 0.0 0.0 0.00 0.05 0.05 74 1019.9
20181214215220 44 198 0.0 1.0 0.00 0.05 0.05 74 1020.0
20181214214250 45 198 0.0 2.0 0.00 0.05 0.05 73 1019.8
20181214213220 45 198 0.0 4.0 0.00 0.05 0.05 73 1019.8
20181214212220 45 197 2.0 4.0 0.00 0.05 0.05 74 1019.6
20181214211250 45 196 0.0 2.0 0.00 0.05 0.05 75 1019.3
20181214210250 45 196 0.0 4.0 0.00 0.05 0.05 75 1019.4
20181214205250 45 196 0.0 5.0 0.00 0.05 0.05 75 1019.4
20181214204250 44 195 0.0 2.0 0.00 0.05 0.05 76 1019.5
20181214203220 44 195 0.0 0.0 0.00 0.05 0.05 77 1019.4
20181214202250 44 195 0.0 4.0 0.00 0.05 0.05 76 1019.4
20181214201220 44 195 4.0 4.0 0.00 0.05 0.05 77 1019.2
20181214200250 44 195 1.0 5.0 0.00 0.05 0.05 77 1019.0
20181214195220 44 194 0.0 1.0 0.00 0.05 0.05 78 1018.8
20181214194223 44 194 0.0 0.0 0.00 0.05 0.05 79 1018.8
20181214193220 44 194 0.0 2.0 0.00 0.05 0.05 79 1018.9
20181214192220 43 194 1.0 1.0 0.00 0.05 0.05 81 1019.0
20181214191250 43 194 0.0 1.0 0.00 0.05 0.05 80 1019.0
20181214190250 43 194 0.0 2.0 0.00 0.05 0.05 79 1019.4
20181214185250 43 194 1.0 2.0 0.00 0.05 0.05 80 1019.5
20181214184220 43 194 1.0 1.0 0.00 0.05 0.05 81 1019.4
20181214183220 43 194 0.0 2.0 0.00 0.05 0.05 81 1019.6
20181214182219 42 194 0.0 6.0 0.00 0.05 0.05 82 1020.0
20181214181250 42 217 0.0 5.0 0.00 0.05 0.05 82 1020.2
20181214180220 42 209 2.0 4.0 0.00 0.05 0.05 83 1020.1
20181214175219 42 209 0.0 5.0 0.00 0.05 0.05 83 1020.0
20181214174220 42 203 1.0 3.0 0.00 0.05 0.05 84 1020.1
20181214173249 42 206 1.0 2.0 0.00 0.05 0.05 84 1020.2
20181214172219 41 191 2.0 5.0 0.01 0.05 0.05 85 1020.4
20181214171249 41 190 1.0 5.0 0.02 0.05 0.05 86 1020.5
20181214170219 41 188 1.0 4.0 0.02 0.05 0.05 87 1020.7
20181214165250 41 188 0.0 2.0 0.03 0.05 0.05 87 1020.6
20181214164249 41 188 0.0 2.0 0.04 0.05 0.05 87 1020.8
20181214163249 41 188 0.0 1.0 0.04 0.05 0.05 87 1021.0
20181214162250 41 188 1.0 1.0 0.04 0.04 0.04 86 1021.2